Tracking 31023 objects as of 19-Jul-2025
HD Live streaming from Space Station
objects crossing your sky now

OPS 7034 (TRANSIT 18)

Track OPS 7034 (TRANSIT 18) now!
10-day predictions
OPS 7034 (TRANSIT 18) is classified as:


NORAD ID: 3133
Int'l Code: 1968-012A
Perigee: 1,019.9 km
Apogee: 1,127.7 km
Inclination: 90.0 °
Period: 106.5 minutes
Semi major axis: 7444 km
RCS: 1.3738 m2 (large)
Launch date: March 2, 1968
Source: United States (US)
Launch site: AIR FORCE WESTERN TEST RANGE (AFWTR)
Your satellite tracking list
Your tracking list is empty




NASA's NSSDC Master Catalog

Two Line Element Set (TLE):
1  3133U 68012A   25200.48005766  .00000078  00000-0  10516-3 0  9993
2  3133  90.0260 273.3021 0072368 233.1750 137.0971 13.51524932825945
Source of the keplerian elements: AFSPC